Regional Weather Roundup
Issued by NWS

Home | Current Version | Previous Version | Text Only | Print | Product List | Glossary Off
Versions: 1 2 3 4 5 6 7 8 9 10 11 12 13 14 15 16 17 18 19 20 21 22 23 24 25 26 27 28 29 30 31 32 33 34 35 36 37 38 39 40 41 42 43 44 45 46 47 48 49 50

000
ASUS43 KIND 251859
RWRIN

WEATHER ROUNDUP FOR INDIANA
NATIONAL WEATHER SERVICE INDIANAPOLIS IN
300 PM EDT SAT MAR 25 2017

NOTE: "FAIR" INDICATES FEW OR NO CLOUDS BELOW 12,000 FEET WITH NO
SIGNIFICANT WEATHER AND/OR OBSTRUCTIONS TO VISIBILITY.

* - STATION DOES NOT REPORT WEATHER SUCH AS PRECIPITATION OR FOG.

+ - STATION NOT QUALITY CONTROLLED BY THE NATIONAL WEATHER SERVICE.
    USE DATA WITH CAUTION...ESPECIALLY DEWPOINT AND RELATIVE
    HUMIDITY OBSERVATIONS.

INZ001>003-010>013-019-020-252000-
NORTHWEST INDIANA

CITY           SKY/WX    TMP DP  RH WIND       PRES   REMARKS
GARY /AIRPORT/ CLOUDY    48  46  93 CALM      29.99F FOG
MONTICELLO +   MOSUNNY   72  51  46 S10G25    29.96F

$$

LMZ046-743>745-252000-
SOUTHERN LAKE MICHIGAN

STATION/POSITION TIME  TEMP    WIND        PRES    WAVE
                       AIR SEA DIR/SP/G            HT
                 (UTC) (F)     (DEG/KT/KT) (MB)    (FT)
BURNS HARBOR     1840   41     310/  2/  3 1015.9F
MICHIGAN CITY    1830   60      80/  9/ 11   N/A

$$

INZ004-005-014>016-021>024-252000-
NORTH CENTRAL INDIANA

CITY           SKY/WX    TMP DP  RH WIND       PRES   REMARKS
ELKHART        SUNNY     57  48  72 E14       30.04F
GOSHEN         MOSUNNY   66  51  58 E16       30.03F
SOUTH BEND     CLOUDY    58  51  78 E13       30.03F

$$

INZ006>009-017-018-025>027-252000-
NORTHEAST INDIANA

CITY           SKY/WX    TMP DP  RH WIND       PRES   REMARKS
ANGOLA *+      SUNNY     55  48  76 E13       30.08F
FORT WAYNE     CLOUDY    73  51  46 SW7       30.04F
KENDALLVILLE + CLOUDY    59  49  69 E14G21    30.07F

$$

INZ028-029-035-036-043>045-051>053-252000-
WEST CENTRAL INDIANA

CITY           SKY/WX    TMP DP  RH WIND       PRES   REMARKS
CRAWFORDSVL +  CLOUDY    69  53  56 S12       29.97F
GREENCASTLE +  CLOUDY    72  52  49 SW5       29.97F
LAFAYETTE      PTSUNNY   71  53  52 S18G26    29.96F
TERRE HAUTE    PTSUNNY   71  51  49 S23G33    29.95F

$$

INZ030>032-037>040-046>048-054>057-064-065-252000-
CENTRAL INDIANA

CITY           SKY/WX    TMP DP  RH WIND       PRES   REMARKS
ANDERSON       SUNNY     73  54  49 S17G29    30.01
INDIANAPOLIS   CLOUDY    75  53  46 S13G24    29.97F
-EAGLE CREEK   MOSUNNY   74  52  46 S13G22    29.97F
KOKOMO +       CLOUDY    71  55  56 S13       30.00F
SHELBYVILLE    CLOUDY    75  51  43 S18       29.99F

$$

INZ033-034-041-042-049-050-058-059-252000-
EAST CENTRAL INDIANA

CITY           SKY/WX    TMP DP  RH WIND       PRES   REMARKS
MUNCIE         PTSUNNY   74  51  44 S17G26    30.01F
RICHMOND +     PTSUNNY   72  52  49 S16       30.07F HAZE

$$

INZ060-061-067>069-081>083-085>088-252000-
SOUTHWEST INDIANA

CITY           SKY/WX    TMP DP  RH WIND       PRES   REMARKS
EVANSVILLE     LGT RAIN  70  53  54 S12G22    29.96S
HUNTINGBURG *+ CLOUDY    73  53  49 S21G29    29.97F

$$

INZ062-063-066-070>080-084-089>092-252000-
SOUTH CENTRAL AND SOUTHEAST INDIANA

CITY           SKY/WX    TMP DP  RH WIND       PRES   REMARKS
BLOOMINGTON    CLOUDY    73  50  44 S16G22    29.96F
MADISON *+     MOSUNNY   77  46  33 S13G20    30.04F
SEYMOUR +      CLOUDY    77  54  44 SE10      29.99F

$$




USA.gov is the U.S. government's official web portal to all federal, state and local government web resources and services.